Погода в Новом Городке

Россия / Кемеровская область (Кузбасс)     54°18′12″N   86°17′36″E
темп.,
°C
ветер,
м/с
пор.,
м/с
влажн.,
%
обл.,
%
осадки,
мм/ч
давл.,
гПа
погр.,
м
26 октября, вт
вт2601:00+6юз4106814 0.0 1020228
04:00+4ююз3474100 0.0 101970
07:00+4ю357599 0.0 101878
10:00+6ююв4106762 0.0 1015270
13:00+10ю41054100 0.0 1012383
16:00+10ю51356100 0.0 1008392
19:00+10ююз71652100 0.0 1007615
22:00+10юз81739100 0.0 1007640
27 октября, ср
ср2701:00+8зюз81446100 0.0 1010703
04:00+4з81360100 0.1 10171440
07:000з61166100 0.1 1023908
10:000з5864100 0.0 1026744
13:00+1з4545100 0.0 1027943
16:00+2зюз3438100 0.0 10261082
19:00−1юз245498 0.0 102870
22:00−2зюз2456100 0.0 1028109
28 октября, чт
чт2801:00−2юз24556 0.0 102988
04:00−3юз245932 0.0 102983
07:00−3ююз226075 0.0 103027
10:00−1ю235063 0.0 1030190
13:00+2ююз233665 0.0 1029735
16:00+3ююз24355 0.0 1028757
19:00−2ююз33520 0.0 102834
22:00−2ю35555 0.0 102882
29 октября, пт
пт2901:00−2ю36576 0.0 1028115
04:00−2ю387214 0.0 1027172
07:00−1ю4108497 0.0 1027251
10:00+2ююз41381100 0.0 1026480
13:00+6ююз6137145 0.0 1025805
16:00+6ююз5107516 0.0 1025737
19:00+4ююз410885 0.0 1025230
22:00+3ююз411885 0.0 1025249
30 октября, сб
сб3001:00+3ююз410875 0.0 1024227
04:00+3ююз5128492 0.0 1024324
07:00+3ююз61577100 0.0 1024471
10:00+4юз81667100 0.0 1023805
13:00+5юз71549100 0.0 10231293
16:00+3зюз71363100 0.0 10261172
19:000зсз5981100 0.3 1030678
22:00−4зсз24695 0.0 1032191